[[{"header":{"parameterUnit":"m.s-1","parameterCategory":1,"la1":30.2991,"la2":30.254,"lo1":-89.0895,"lo2":-89.0444,"dy":0.0017,"dx":0.0017,"nx":28,"ny":28,"refTime":"2023-07-21T21:00:00:Z","depth":0,"parameterNumber":2,"parameterNumberName":"U-component_of_WINDS"},"data":[0,0,0,0,0,0,0,0,0,0,0,0,0,0,0,0,0,0,0,0,0,0,0,0,0,0,0,0,0,0,0,0,0,0,0,0,0,0,0,0,0,0,0,0,0,0,0,0,0,0,0,0,0,0,0,0,0,0,1.5501,1.5502,0,1.552,1.552,1.552,1.5562,1.5563,1.5563,1.5564,1.5579,1.5578,1.5578,0,0,0,0,0,0,0,0,0,0,0,0,0,1.5498,1.5498,1.5501,1.5502,1.5502,1.5519,1.552,1.552,1.5561,1.5563,1.5564,1.5565,1.5579,1.5579,1.5578,0,0,0,0,0,0,0,0,0,0,0,0,0,1.5506,1.5498,1.5501,1.5525,1.5527,1.5519,1.552,1.552,1.5561,1.5563,1.5564,1.5565,1.5579,1.5579,1.5578,1.5548,0,0,1.5576,1.5576,0,0,0,0,0,0,0,0,1.5506,1.5506,1.5521,1.5523,1.5526,1.554,1.5524,1.5529,1.5561,1.5548,1.5564,1.5566,1.5565,1.5565,1.5566,1.5548,1.5549,1.5576,1.5576,1.5575,1.5575,0,0,0,0,0,0,0,1.5505,1.5506,1.5509,1.5521,1.5524,1.5533,1.5535,1.5525,1.5549,1.5549,1.5552,1.5554,1.5566,1.5566,1.5566,1.5549,1.5576,1.5575,1.5575,1.5575,1.5505,1.5504,0,0,0,0,0,0,1.5502,1.5505,1.5508,1.5509,1.5519,1.5532,1.5535,1.5534,1.5549,1.5553,1.5553,1.5556,1.5567,1.5567,1.5567,1.553,1.5575,1.5575,1.5574,1.5507,1.5505,1.5503,0,0,0,0,0,0,1.5501,1.5502,1.5507,1.5508,1.5509,1.5531,1.5529,1.5534,1.5534,1.5552,1.5556,1.5549,1.5568,1.5568,1.5552,1.5531,1.5574,1.5574,1.5508,1.5506,1.5504,1.5458,0,0,0,0,0,0,1.5501,1.5501,1.5491,1.5507,1.5509,1.5493,1.5528,1.5533,1.5533,1.5537,1.5549,1.5552,1.5569,1.5553,1.5551,1.5531,1.5573,1.551,1.5507,1.5505,1.5462,1.5455,1.5449,0,0,0,0,0,1.5501,1.5477,1.5491,1.5491,1.5497,1.5492,1.5493,1.5513,1.5531,1.552,1.5531,1.5552,1.5534,1.5551,1.5549,1.5529,1.5511,1.5508,1.5505,1.5464,1.5456,1.5449,0,0,0,0,0,0,1.5457,1.548,1.5495,1.5476,1.5482,1.5499,1.5486,1.5504,1.5504,1.5507,1.5532,1.5534,1.5514,1.552,1.5538,1.5499,1.5526,1.5522,1.5496,1.5488,1.5482,1.5479,1.5573,0,0,0,0,0,1.5446,1.5441,1.5461,1.5442,1.5444,1.5464,1.5463,1.5478,1.5485,1.5487,1.5497,1.5501,1.5497,1.5493,1.549,1.5463,1.5465,1.5448,1.5442,1.5437,1.5432,1.5416,1.5408,1.5492,1.5492,1.5492,0,0,1.5421,1.5433,1.5429,1.5434,1.544,1.5432,1.5466,1.5458,1.5452,1.5485,1.547,1.5478,1.5484,1.5462,1.5453,1.5466,1.541,1.5432,1.5428,1.5427,1.5412,1.5404,1.5397,1.549,1.5491,1.5491,0,0,1.5373,1.5382,1.5367,1.5372,1.5382,1.5395,1.5391,1.5405,1.5412,1.5398,1.5422,1.5415,1.5407,1.5409,1.5409,1.536,1.5377,1.5358,1.5324,1.5308,1.5301,1.5295,1.5275,1.5268,1.5354,1.5354,1.5354,0,1.5341,1.5332,1.5356,1.5346,1.5346,1.5377,1.536,1.5364,1.5371,1.5369,1.5385,1.5374,1.5381,1.5358,1.5346,1.5346,1.534,1.5356,1.53,1.5295,1.529,1.527,1.5263,1.5352,1.5352,1.5352,1.5353,0,1.5291,1.5285,1.5271,1.5277,1.5276,1.5263,1.5283,1.5278,1.5293,1.5304,1.5288,1.5297,1.5294,1.5291,1.5305,1.5269,1.5277,1.5296,1.5323,1.5279,1.5261,1.5254,1.5348,1.5349,1.535,1.535,0,0,1.5215,1.5235,1.5229,1.5232,1.5243,1.5238,1.5224,1.5223,1.5218,1.5222,1.5209,1.5201,1.5218,1.5218,1.5233,1.5219,1.5176,1.524,1.524,1.5225,1.5133,1.5117,1.5109,1.5188,1.5187,1.5186,1.5132,0,1.5168,1.5147,1.5168,1.5142,1.5135,1.5163,1.5151,1.5156,1.5166,1.5159,1.517,1.5162,1.5187,1.5187,1.5174,1.5184,1.5157,1.5188,1.5174,1.5173,1.517,1.51,1.5083,1.5032,1.5126,1.5124,1.5124,0,1.511,1.5111,1.5084,1.5096,1.5094,1.5083,1.5082,1.5077,1.5082,1.509,1.5089,1.5107,1.5092,1.512,1.5098,1.5119,1.5114,1.5118,1.5116,1.5114,1.5144,1.5093,1.5016,1.5007,1.5113,1.5114,1.5115,0,1.5054,1.5049,1.5032,1.5033,1.5047,1.5038,1.5043,1.505,1.5047,1.5046,1.5044,1.5041,1.5039,1.5035,1.5051,1.507,1.5026,1.5056,1.5029,1.5029,1.5017,1.5017,1.4936,1.5018,1.5018,1.5018,1.5019,0,1.4997,1.4979,1.5007,1.4996,1.4976,1.4999,1.4978,1.4986,1.4991,1.498,1.5005,1.4995,1.5017,1.5008,1.5021,1.4999,1.4998,1.5002,1.5005,1.4999,1.4998,1.4995,1.4998,1.5016,1.5017,1.5017,1.5018,0,1.4931,1.4949,1.4932,1.4946,1.4949,1.4934,1.4945,1.4934,1.4946,1.4932,1.493,1.4947,1.4937,1.4953,1.4945,1.4953,1.4923,1.4932,1.4921,1.4923,1.4895,1.4896,1.4807,1.4795,1.4887,1.4886,1.4885,0,1.4893,1.4879,1.4892,1.4888,1.4892,1.4884,1.4881,1.4903,1.4898,1.4902,1.489,1.4883,1.4878,1.4861,1.4871,1.4865,1.4873,1.4842,1.4872,1.4865,1.4869,1.4869,1.4866,1.4835,1.4834,1.4833,1.4832,0,1.4822,1.4831,1.4827,1.4825,1.4821,1.4821,1.4822,1.4816,1.4839,1.4832,1.4823,1.4819,1.4811,1.4803,1.4798,1.4802,1.4819,1.4823,1.4816,1.4808,1.4801,1.4802,1.4901,1.4825,1.4825,1.4826,1.4826,1.4827,1.4767,1.4755,1.4762,1.4756,1.4759,1.4759,1.4749,1.4759,1.4753,1.4748,1.4761,1.4748,1.4751,1.4747,1.4748,1.4737,1.475,1.4741,1.4738,1.4735,1.4729,1.4805,1.4737,1.4737,1.4737,1.4737,1.4737,0,1.4695,1.4701,1.4695,1.4696,1.469,1.4709,1.4711,1.4704,1.4693,1.4695,1.469,1.4678,1.4669,1.4678,1.4671,1.466,1.4667,1.4657,1.4656,1.4656,1.4719,1.4725,1.465,1.465,1.465,1.465,1.465,1.465,1.4657,1.4638,1.4648,1.463,1.4635,1.4624,1.4622,1.4621,1.4623,1.4609,1.4602,1.4609,1.4613,1.4605,1.4597,1.46,1.4594,1.458,1.4585,1.4644,1.4652,1.466,1.4665,1.458,1.458,1.4523,1.4522,1.4522]},{"header":{"parameterUnit":"m.s-1","parameterCategory":1,"la1":30.2991,"la2":30.254,"lo1":-89.0895,"lo2":-89.0444,"dy":0.0017,"dx":0.0017,"nx":28,"ny":28,"refTime":"2023-07-21T21:00:00:Z","depth":0,"parameterNumber":3,"parameterNumberName":"V-component_of_WINDS"},"data":[0,0,0,0,0,0,0,0,0,0,0,0,0,0,0,0,0,0,0,0,0,0,0,0,0,0,0,0,0,0,0,0,0,0,0,0,0,0,0,0,0,0,0,0,0,0,0,0,0,0,0,0,0,0,0,0,0,0,-0.2425,-0.2424,0,-0.24,-0.24,-0.24,-0.2409,-0.2409,-0.241,-0.241,-0.2384,-0.2383,-0.2382,0,0,0,0,0,0,0,0,0,0,0,0,0,-0.2479,-0.2478,-0.2425,-0.2424,-0.2424,-0.24,-0.24,-0.24,-0.2408,-0.2409,-0.241,-0.241,-0.2385,-0.2383,-0.2382,0,0,0,0,0,0,0,0,0,0,0,0,0,-0.2455,-0.2478,-0.2425,-0.2426,-0.2425,-0.24,-0.24,-0.2399,-0.2408,-0.2409,-0.241,-0.2411,-0.2385,-0.2383,-0.2382,-0.2354,0,0,-0.2376,-0.2375,0,0,0,0,0,0,0,0,-0.2456,-0.2453,-0.2426,-0.2425,-0.2425,-0.2408,-0.241,-0.2384,-0.2408,-0.2415,-0.241,-0.2411,-0.2392,-0.2389,-0.2383,-0.2353,-0.2352,-0.2376,-0.2375,-0.2374,-0.2374,0,0,0,0,0,0,0,-0.2458,-0.2454,-0.2415,-0.2425,-0.2425,-0.2427,-0.2425,-0.2405,-0.2399,-0.2414,-0.2415,-0.2412,-0.2392,-0.2385,-0.2382,-0.2351,-0.2376,-0.2374,-0.2373,-0.2373,-0.2298,-0.2297,0,0,0,0,0,0,-0.246,-0.2455,-0.2416,-0.2414,-0.2443,-0.2426,-0.2423,-0.2413,-0.2399,-0.2398,-0.2411,-0.2412,-0.2387,-0.2384,-0.2381,-0.2348,-0.2374,-0.2372,-0.2371,-0.2299,-0.2298,-0.2297,0,0,0,0,0,0,-0.2461,-0.2456,-0.2417,-0.2435,-0.243,-0.2424,-0.2412,-0.2412,-0.2405,-0.2397,-0.2396,-0.2405,-0.2388,-0.2384,-0.2361,-0.2348,-0.2372,-0.237,-0.23,-0.2299,-0.2298,-0.2282,0,0,0,0,0,0,-0.2463,-0.2457,-0.2446,-0.2435,-0.2429,-0.2396,-0.2412,-0.2411,-0.2402,-0.2403,-0.2391,-0.2389,-0.2388,-0.2364,-0.2359,-0.2345,-0.2368,-0.2301,-0.23,-0.2298,-0.2283,-0.228,-0.2277,0,0,0,0,0,-0.2464,-0.2442,-0.2445,-0.244,-0.2415,-0.2395,-0.2392,-0.2391,-0.2401,-0.239,-0.2385,-0.239,-0.235,-0.2361,-0.2356,-0.2342,-0.2302,-0.23,-0.2298,-0.2285,-0.2281,-0.2277,0,0,0,0,0,0,-0.245,-0.244,-0.2444,-0.2417,-0.2407,-0.2397,-0.2383,-0.2387,-0.2374,-0.2376,-0.2375,-0.2372,-0.2349,-0.2343,-0.2356,-0.2315,-0.2328,-0.2324,-0.2319,-0.2315,-0.2312,-0.2313,-0.2367,0,0,0,0,0,-0.2444,-0.2429,-0.2421,-0.2398,-0.2393,-0.2389,-0.238,-0.2381,-0.2371,-0.2366,-0.236,-0.2349,-0.2335,-0.2325,-0.2311,-0.2283,-0.2281,-0.2271,-0.2268,-0.2266,-0.2263,-0.2248,-0.2244,-0.2291,-0.2291,-0.2291,0,0,-0.2431,-0.2424,-0.2414,-0.2395,-0.2388,-0.2372,-0.2385,-0.2368,-0.2356,-0.2364,-0.2341,-0.2337,-0.2325,-0.23,-0.2289,-0.2295,-0.225,-0.2263,-0.2261,-0.2259,-0.2246,-0.2241,-0.2238,-0.2289,-0.2289,-0.229,0,0,-0.2399,-0.2392,-0.2372,-0.2365,-0.2354,-0.2352,-0.2347,-0.2337,-0.2334,-0.2312,-0.2318,-0.2304,-0.2279,-0.2271,-0.2263,-0.2231,-0.2235,-0.2226,-0.2209,-0.2196,-0.2192,-0.2189,-0.2177,-0.2173,-0.2224,-0.2224,-0.2224,0,-0.2384,-0.2361,-0.2362,-0.2344,-0.2336,-0.2343,-0.2324,-0.2316,-0.2301,-0.2295,-0.2303,-0.2272,-0.2265,-0.2238,-0.223,-0.2224,-0.2219,-0.2227,-0.2193,-0.2189,-0.2186,-0.2175,-0.2171,-0.2223,-0.2223,-0.2223,-0.2223,0,-0.2343,-0.2327,-0.2312,-0.2298,-0.2289,-0.227,-0.2269,-0.2259,-0.2261,-0.2258,-0.2237,-0.2229,-0.2214,-0.2208,-0.2209,-0.2182,-0.2186,-0.2193,-0.2205,-0.2181,-0.217,-0.2166,-0.2221,-0.2222,-0.2222,-0.2222,0,0,-0.2298,-0.2287,-0.2282,-0.2276,-0.2265,-0.2253,-0.2236,-0.2222,-0.2213,-0.2203,-0.2189,-0.2168,-0.2175,-0.2167,-0.2168,-0.2156,-0.2131,-0.2164,-0.2164,-0.2158,-0.2101,-0.2095,-0.209,-0.2134,-0.2133,-0.2133,-0.2101,0,-0.2265,-0.2235,-0.2236,-0.2208,-0.2193,-0.2201,-0.2186,-0.2178,-0.2175,-0.2163,-0.216,-0.2146,-0.2156,-0.2151,-0.214,-0.2136,-0.2119,-0.2139,-0.212,-0.212,-0.2122,-0.2084,-0.2078,-0.2048,-0.2097,-0.2097,-0.2096,0,-0.2222,-0.2211,-0.2181,-0.2174,-0.2168,-0.2155,-0.2143,-0.2131,-0.2123,-0.2122,-0.2114,-0.2117,-0.21,-0.2114,-0.209,-0.2104,-0.2097,-0.2094,-0.2093,-0.209,-0.2105,-0.208,-0.2039,-0.2034,-0.209,-0.209,-0.2091,0,-0.2192,-0.2171,-0.2151,-0.2145,-0.2137,-0.2127,-0.2123,-0.2116,-0.2108,-0.2097,-0.2092,-0.208,-0.2073,-0.2064,-0.2064,-0.2074,-0.204,-0.2054,-0.2039,-0.2039,-0.203,-0.2031,-0.1987,-0.2027,-0.2027,-0.2027,-0.2027,0,-0.2155,-0.2136,-0.2137,-0.2125,-0.2104,-0.2107,-0.2087,-0.2084,-0.2078,-0.2065,-0.2071,-0.2059,-0.206,-0.2048,-0.2048,-0.2029,-0.2026,-0.2025,-0.2025,-0.2024,-0.2024,-0.2018,-0.202,-0.2026,-0.2026,-0.2027,-0.2027,0,-0.2117,-0.2118,-0.2096,-0.209,-0.2089,-0.2074,-0.2069,-0.2057,-0.2057,-0.204,-0.2037,-0.2035,-0.2021,-0.2021,-0.2005,-0.2005,-0.1982,-0.1984,-0.1984,-0.1985,-0.1969,-0.197,-0.1919,-0.1913,-0.1958,-0.1958,-0.1957,0,-0.2093,-0.2079,-0.2072,-0.2064,-0.206,-0.2047,-0.2039,-0.2042,-0.2034,-0.2025,-0.2014,-0.2001,-0.1991,-0.1969,-0.1966,-0.1954,-0.1956,-0.1939,-0.1954,-0.1954,-0.1955,-0.1956,-0.1955,-0.1936,-0.1935,-0.1935,-0.1934,0,-0.2049,-0.205,-0.2039,-0.2028,-0.2019,-0.2011,-0.2003,-0.1996,-0.1998,-0.1989,-0.1975,-0.1968,-0.1952,-0.1939,-0.1928,-0.1924,-0.193,-0.193,-0.1926,-0.1924,-0.1924,-0.1924,-0.1975,-0.1931,-0.1931,-0.1931,-0.1932,-0.1932,-0.2016,-0.2005,-0.1999,-0.1987,-0.1982,-0.1975,-0.1964,-0.1962,-0.1951,-0.1939,-0.1942,-0.1927,-0.192,-0.1906,-0.1901,-0.189,-0.1896,-0.189,-0.1888,-0.1886,-0.1884,-0.1927,-0.1888,-0.1888,-0.1888,-0.1888,-0.1888,0,-0.1972,-0.197,-0.1959,-0.1948,-0.1939,-0.1946,-0.1939,-0.193,-0.1917,-0.1911,-0.1901,-0.1886,-0.1875,-0.1872,-0.186,-0.1852,-0.1854,-0.1849,-0.1849,-0.1848,-0.188,-0.1884,-0.1847,-0.1847,-0.1847,-0.1847,-0.1847,-0.1847,-0.1948,-0.1929,-0.193,-0.1909,-0.1907,-0.1892,-0.1887,-0.1881,-0.1877,-0.186,-0.185,-0.1849,-0.1845,-0.1833,-0.1823,-0.1823,-0.1818,-0.1811,-0.1812,-0.1841,-0.1846,-0.1849,-0.1854,-0.1811,-0.1811,-0.1781,-0.1781,-0.1781]}]]